Météo par heure à Kitzbühel

Ce jour, 1 Octobre, Jeudi

Heure Température Précipitation Vent Pression Humidité
00:00 +8°C° 0 mm 1 m/s 673 mmHg 89%
01:00 +7°C° 0 mm 1 m/s 673 mmHg 88%
02:00 +7°C° 0 mm 1 m/s 672 mmHg 88%
03:00 +7°C° 0 mm 1 m/s 672 mmHg 87%
04:00 +7°C° 0 mm 1 m/s 671 mmHg 87%
05:00 +8°C° 0 mm 1 m/s 671 mmHg 86%
06:00 +8°C° 0 mm 1 m/s 671 mmHg 84%
07:00 +8°C° 0 mm 1 m/s 671 mmHg 83%
08:00 +11°C° 0 mm 1 m/s 671 mmHg 75%
09:00 +14°C° 0 mm 1 m/s 671 mmHg 68%
10:00 +16°C° 0 mm 0 m/s 671 mmHg 61%
11:00 +16°C° 0 mm 0 m/s 671 mmHg 58%
12:00 +19°C° 0 mm 1 m/s 671 mmHg 56%
13:00 +19°C° 0 mm 1 m/s 671 mmHg 53%
14:00 +19°C° 0 mm 1 m/s 671 mmHg 58%
15:00 +18°C° 0 mm 1 m/s 670 mmHg 63%
16:00 +16°C° 0 mm 1 m/s 670 mmHg 68%
17:00 +14°C° 0 mm 1 m/s 669 mmHg 76%
18:00 +12°C° 0 mm 1 m/s 669 mmHg 83%
19:00 +10°C° 0 mm 0 m/s 669 mmHg 90%
20:00 +10°C° 0 mm 0 m/s 669 mmHg 90%
21:00 +10°C° 0 mm 0 m/s 669 mmHg 89%
22:00 +10°C° 0 mm 0 m/s 669 mmHg 88%
23:00 +10°C° 0 mm 1 m/s 669 mmHg 89%

Demain, 2 Octobre, Vendredi

Heure Température Précipitation Vent Pression Humidité
00:00 +10°C° 0 mm 1 m/s 669 mmHg 89%
01:00 +9°C° 0 mm 1 m/s 668 mmHg 89%
02:00 +9°C° 0 mm 1 m/s 668 mmHg 90%
03:00 +9°C° 0 mm 1 m/s 667 mmHg 91%
04:00 +9°C° 0 mm 1 m/s 667 mmHg 92%
05:00 +8°C° 0 mm 2 m/s 667 mmHg 90%
06:00 +8°C° 0 mm 2 m/s 666 mmHg 89%
07:00 +9°C° 0 mm 2 m/s 666 mmHg 87%
08:00 +10°C° 0 mm 2 m/s 666 mmHg 82%
09:00 +12°C° 0 mm 2 m/s 666 mmHg 78%
10:00 +14°C° 0 mm 2 m/s 665 mmHg 73%
11:00 +13°C° 0 mm 3 m/s 665 mmHg 71%
12:00 +14°C° 0 mm 3 m/s 665 mmHg 69%
13:00 +16°C° 0 mm 3 m/s 665 mmHg 66%
14:00 +16°C° 0 mm 3 m/s 665 mmHg 69%
15:00 +14°C° 0 mm 3 m/s 664 mmHg 71%
16:00 +14°C° 0 mm 3 m/s 664 mmHg 74%
17:00 +13°C° 0.1 mm 3 m/s 664 mmHg 77%
18:00 +12°C° 0.1 mm 3 m/s 663 mmHg 81%
19:00 +11°C° 0.1 mm 4 m/s 663 mmHg 85%
20:00 +11°C° 0 mm 4 m/s 663 mmHg 85%
21:00 +11°C° 0 mm 4 m/s 663 mmHg 85%
22:00 +11°C° 0 mm 4 m/s 663 mmHg 85%
23:00 +11°C° 0 mm 4 m/s 663 mmHg 84%

Après-demain, 3 Octobre, Samedi

Heure Température Précipitation Vent Pression Humidité
00:00 +11°C° 0 mm 4 m/s 663 mmHg 84%
01:00 +11°C° 0 mm 4 m/s 662 mmHg 84%
02:00 +11°C° 0 mm 4 m/s 664 mmHg 79%
03:00 +11°C° 0 mm 4 m/s 664 mmHg 79%
04:00 +11°C° 0 mm 4 m/s 663 mmHg 79%
05:00 +11°C° 0 mm 4 m/s 663 mmHg 79%
06:00 +11°C° 0 mm 4 m/s 663 mmHg 79%
07:00 +12°C° 0 mm 4 m/s 663 mmHg 79%
08:00 +13°C° 0 mm 5 m/s 663 mmHg 74%
09:00 +15°C° 0 mm 5 m/s 663 mmHg 69%
10:00 +17°C° 0 mm 5 m/s 663 mmHg 64%
11:00 +18°C° 0.6 mm 4 m/s 664 mmHg 64%
12:00 +18°C° 0.6 mm 4 m/s 664 mmHg 64%
13:00 +18°C° 0.6 mm 4 m/s 664 mmHg 64%
14:00 +17°C° 0.3 mm 3 m/s 664 mmHg 69%
15:00 +16°C° 0.3 mm 3 m/s 663 mmHg 73%
16:00 +14°C° 0.3 mm 3 m/s 663 mmHg 78%
17:00 +13°C° 0.6 mm 2 m/s 663 mmHg 83%
18:00 +10°C° 0.6 mm 2 m/s 663 mmHg 89%
19:00 +9°C° 0.6 mm 1 m/s 663 mmHg 94%
20:00 +9°C° 1.6 mm 1 m/s 663 mmHg 95%
21:00 +8°C° 1.6 mm 2 m/s 663 mmHg 96%
22:00 +8°C° 1.6 mm 2 m/s 664 mmHg 96%
23:00 +7°C° 0 mm 3 m/s 664 mmHg 94%

4 Octobre, Dimanche

Heure Température Précipitation Vent Pression Humidité
00:00 +7°C° 0 mm 3 m/s 663 mmHg 93%
01:00 +5°C° 0 mm 4 m/s 663 mmHg 91%
02:00 +5°C° 0 mm 3 m/s 664 mmHg 90%
03:00 +4°C° 0 mm 3 m/s 664 mmHg 89%
04:00 +4°C° 0 mm 3 m/s 664 mmHg 88%
05:00 +4°C° 0 mm 3 m/s 665 mmHg 88%
06:00 +5°C° 0 mm 2 m/s 665 mmHg 88%
07:00 +6°C° 0 mm 2 m/s 666 mmHg 88%
08:00 +7°C° 0 mm 2 m/s 666 mmHg 82%
09:00 +9°C° 0 mm 2 m/s 667 mmHg 76%
10:00 +12°C° 0 mm 2 m/s 667 mmHg 70%
11:00 +13°C° 0 mm 2 m/s 667 mmHg 67%
12:00 +13°C° 0 mm 2 m/s 668 mmHg 65%
13:00 +14°C° 0 mm 2 m/s 668 mmHg 63%
14:00 +14°C° 0 mm 2 m/s 668 mmHg 64%
15:00 +13°C° 0 mm 2 m/s 667 mmHg 66%
16:00 +13°C° 0 mm 2 m/s 667 mmHg 67%
17:00 +12°C° 0 mm 2 m/s 667 mmHg 73%
18:00 +9°C° 0 mm 2 m/s 667 mmHg 79%
19:00 +7°C° 0 mm 2 m/s 666 mmHg 86%
20:00 +6°C° 0 mm 2 m/s 666 mmHg 85%
21:00 +5°C° 0 mm 3 m/s 666 mmHg 85%
22:00 +5°C° 0 mm 3 m/s 666 mmHg 85%
23:00 +6°C° 0 mm 2 m/s 666 mmHg 85%

5 Octobre, Lundi

Heure Température Précipitation Vent Pression Humidité
00:00 +6°C° 0 mm 2 m/s 665 mmHg 85%
01:00 +6°C° 0 mm 2 m/s 665 mmHg 85%
02:00 +7°C° 0 mm 1 m/s 665 mmHg 87%
03:00 +6°C° 0 mm 1 m/s 665 mmHg 88%
04:00 +5°C° 0 mm 0 m/s 664 mmHg 90%
05:00 +6°C° 1.8 mm 1 m/s 665 mmHg 93%
06:00 +6°C° 1.8 mm 1 m/s 665 mmHg 95%
07:00 +6°C° 1.8 mm 1 m/s 665 mmHg 98%
08:00 +6°C° 1.7 mm 1 m/s 665 mmHg 98%
09:00 +6°C° 1.7 mm 1 m/s 665 mmHg 98%
10:00 +6°C° 1.7 mm 1 m/s 666 mmHg 97%
11:00 +7°C° 0.6 mm 1 m/s 666 mmHg 95%
12:00 +7°C° 0.6 mm 1 m/s 666 mmHg 94%
13:00 +8°C° 0.6 mm 1 m/s 666 mmHg 92%
14:00 +9°C° 0 mm 1 m/s 666 mmHg 88%
15:00 +9°C° 0 mm 1 m/s 666 mmHg 84%
16:00 +9°C° 0 mm 1 m/s 666 mmHg 80%
17:00 +8°C° 0 mm 1 m/s 666 mmHg 84%
18:00 +7°C° 0 mm 1 m/s 666 mmHg 88%
19:00 +6°C° 0 mm 1 m/s 666 mmHg 91%
20:00 +6°C° 0 mm 1 m/s 666 mmHg 91%
21:00 +6°C° 0 mm 1 m/s 667 mmHg 90%
22:00 +6°C° 0 mm 1 m/s 667 mmHg 89%
23:00 +6°C° 0 mm 1 m/s 667 mmHg 90%

6 Octobre, Mardi

Heure Température Précipitation Vent Pression Humidité
00:00 +5°C° 0 mm 0 m/s 667 mmHg 90%
01:00 +5°C° 0 mm 0 m/s 667 mmHg 91%
02:00 +6°C° 0 mm 1 m/s 667 mmHg 91%
03:00 +6°C° 0 mm 1 m/s 667 mmHg 92%
04:00 +6°C° 0 mm 1 m/s 667 mmHg 92%
05:00 +6°C° 0 mm 1 m/s 667 mmHg 92%
06:00 +6°C° 0 mm 1 m/s 667 mmHg 91%
07:00 +5°C° 0 mm 1 m/s 667 mmHg 91%
08:00 +8°C° 0 mm 1 m/s 667 mmHg 84%
09:00 +10°C° 0 mm 1 m/s 668 mmHg 78%
10:00 +12°C° 0 mm 1 m/s 668 mmHg 71%
11:00 +12°C° 0 mm 1 m/s 668 mmHg 69%
12:00 +13°C° 0 mm 1 m/s 668 mmHg 67%
13:00 +14°C° 0 mm 1 m/s 667 mmHg 64%
14:00 +13°C° 0.3 mm 1 m/s 667 mmHg 72%
15:00 +12°C° 0.3 mm 1 m/s 667 mmHg 80%
16:00 +11°C° 0.3 mm 1 m/s 667 mmHg 88%
17:00 +10°C° 0.4 mm 1 m/s 667 mmHg 91%
18:00 +9°C° 0.4 mm 1 m/s 667 mmHg 93%
19:00 +7°C° 0.4 mm 1 m/s 667 mmHg 96%
20:00 +7°C° 1.1 mm 1 m/s 668 mmHg 96%
21:00 +7°C° 1.1 mm 1 m/s 668 mmHg 97%
22:00 +7°C° 1.1 mm 1 m/s 668 mmHg 98%
23:00 +7°C° 0.5 mm 1 m/s 668 mmHg 98%
Voir plus